This is the latest recevied weather packets stored in our database for station/object EA1CZ-10. If no packets are shown the sender has not sent any weather packets the latest 10 day(s).
| Time | Temp. | Humidity | Pressure | Rain* | Wind** | Luminosity | Snow |
|---|---|---|---|---|---|---|---|
| 1777603233 | 8.89° C | 68% | 1032.7 hPa | - | - | - | - |
| 1777601433 | 8.89° C | 68% | 1032.6 hPa | - | - | - | - |
| 1777599633 | 8.33° C | 68% | 1032.6 hPa | - | - | - | - |
| 1777597833 | 7.22° C | 68% | 1032.7 hPa | - | - | - | - |
| 1777596033 | 8.89° C | 68% | 1032.9 hPa | - | - | - | - |
| 1777594233 | 10° C | 67% | 1032.9 hPa | - | - | - | - |
| 1777592433 | 11.67° C | 66% | 1032.8 hPa | - | - | - | - |
| 1777590632 | 12.22° C | 66% | 1032.9 hPa | - | - | - | - |
| 1777588832 | 12.22° C | 66% | 1032.9 hPa | - | - | - | - |
| 1777587032 | 12.78° C | 66% | 1032.8 hPa | - | - | - | - |
| 1777585232 | 12.78° C | 66% | 1032.8 hPa | - | - | - | - |
| 1777583432 | 13.33° C | 66% | 1032.7 hPa | - | - | - | - |
| 1777581632 | 13.33° C | 66% | 1032.5 hPa | - | - | - | - |
| 1777579832 | 13.33° C | 66% | 1032.4 hPa | - | - | - | - |
| 1777578032 | 13.33° C | 66% | 1032.1 hPa | - | - | - | - |
| 1777576232 | 13.33° C | 66% | 1031.9 hPa | - | - | - | - |
| 1777574432 | 12.78° C | 66% | 1031.8 hPa | - | - | - | - |
| 1777572631 | 12.78° C | 65% | 1031.5 hPa | - | - | - | - |
| 1777570831 | 11.67° C | 66% | 1031.6 hPa | - | - | - | - |
| 1777569031 | 13.89° C | 65% | 1031.5 hPa | - | - | - | - |
| 1777567231 | 15° C | 65% | 1031.3 hPa | - | - | - | - |
| 1777565431 | 11.11° C | 66% | 1031.3 hPa | - | - | - | - |
| 1777563631 | 13.89° C | 65% | 1030.7 hPa | - | - | - | - |
| 1777561831 | 17.22° C | 63% | 1031 hPa | - | - | - | - |
| 1777560031 | 18.89° C | 63% | 1030.9 hPa | - | - | - | - |
* Rain since midnight (hover to see other rain measurements)
** Current wind speed in m/s (hover to see current wind gust speed)